WXM80 ListenWXM80 Stop

You find our weather info also at:

UK Metoffice

WeatherCloud

Weather Underground

Northeastern Weather Network

AWEKAS

Citizen Weather Observer Program (CWOP)

HAMweather, WeatherForYou, PWS Weather


Weather Underground History page Text

Daily Summary for September 27, 2016 Units:  English    Metric   Both
« Previous Day
Next Day »
Daily Weekly Monthly Yearly Custom
  High: Low: Average:
Temperature: 74.3 °F 60.3 °F 67.7 °F
Dew Point: 65.9 °F 57.7 °F 63.2 °F
Humidity: 95 % 67 % 86 %
Wind Speed: 5.9 mph 0.0 mph 1 mph
Wind Gust: 10.4 mph - -
Wind:- - SSW
Pressure: 29.96 in 29.85 in -
Precipitation: 0.27 in    
Historical Graphs
 
 
Tabular Data for September 27, 2016
Time Temperature Dew Point Pressure Wind Wind Speed Wind Gust Humidity Rainfall Rate (Hourly)
00:02 67.2 °F 60.8 °F 29.96 in SSE 1.6 mph 3.5 mph 80 % 0.00 in
00:07 67.2 °F 60.8 °F 29.95 in Calm     80 % 0.00 in
00:12 67.2 °F 61.2 °F 29.95 in WSW 0.3 mph 2.3 mph 81 % 0.00 in
00:17 67.2 °F 61.2 °F 29.95 in SSE 0.2 mph 3.5 mph 81 % 0.00 in
00:22 67.3 °F 61.3 °F 29.95 in SSE 3.9 mph 8.1 mph 81 % 0.00 in
00:27 67.4 °F 61.4 °F 29.94 in SSE 0.9 mph 3.5 mph 81 % 0.00 in
00:32 67.5 °F 61.5 °F 29.94 in SE 0.7 mph 3.5 mph 81 % 0.00 in
00:37 67.6 °F 61.6 °F 29.94 in SSE 1.2 mph 2.3 mph 81 % 0.00 in
00:42 67.6 °F 61.9 °F 29.94 in SSE 0.4 mph 2.3 mph 82 % 0.00 in
00:48 67.7 °F 62.3 °F 29.93 in SSE 3.5 mph 3.5 mph 83 % 0.00 in
00:53 67.6 °F 62.6 °F 29.93 in Calm   3.5 mph 84 % 0.00 in
00:58 67.5 °F 62.8 °F 29.93 in SE 1.2 mph 3.5 mph 85 % 0.00 in
01:03 67.4 °F 62.7 °F 29.93 in SW 1.2 mph 2.3 mph 85 % 0.00 in
01:08 67.3 °F 63.0 °F 29.93 in SW 0.7 mph 2.3 mph 86 % 0.00 in
01:13 67.3 °F 63.3 °F 29.93 in SW 0.1 mph 1.2 mph 87 % 0.01 in
01:23 66.8 °F 63.1 °F 29.92 in Calm     88 % 0.01 in
01:28 66.6 °F 63.3 °F 29.92 in SW 0.1 mph 1.2 mph 89 % 0.01 in
01:33 66.4 °F 63.4 °F 29.92 in SE 1.1 mph 1.2 mph 90 % 0.01 in
01:38 66.2 °F 63.5 °F 29.92 in Calm     91 % 0.01 in
01:44 66.1 °F 63.4 °F 29.92 in SSE 1.5 mph 3.5 mph 91 % 0.01 in
01:49 66.0 °F 63.6 °F 29.92 in SSE 0.2 mph 2.3 mph 92 % 0.01 in
01:54 66.0 °F 63.6 °F 29.91 in SSE 0.1 mph 1.2 mph 92 % 0.01 in
01:59 66.0 °F 63.6 °F 29.91 in SSE 0.5 mph 2.3 mph 92 % 0.01 in
02:04 66.0 °F 63.6 °F 29.90 in Calm     92 % 0.01 in
02:09 66.0 °F 63.6 °F 29.91 in Calm     92 % 0.01 in
02:14 66.0 °F 63.9 °F 29.90 in Calm     93 % 0.00 in
02:19 66.0 °F 63.9 °F 29.90 in SE 0.2 mph 1.2 mph 93 % 0.00 in
02:24 66.1 °F 64.0 °F 29.89 in Calm   1.2 mph 93 % 0.00 in
02:29 66.1 °F 64.0 °F 29.89 in WSW 0.1 mph 1.2 mph 93 % 0.00 in
02:35 66.1 °F 64.0 °F 29.89 in SSE 0.1 mph 3.5 mph 93 % 0.00 in
02:40 66.2 °F 64.1 °F 29.89 in WSW 0.1 mph 1.2 mph 93 % 0.00 in
02:45 66.2 °F 64.1 °F 29.89 in Calm   2.3 mph 93 % 0.00 in
02:50 66.3 °F 64.2 °F 29.88 in SSE 1.0 mph 3.5 mph 93 % 0.00 in
02:55 66.4 °F 64.3 °F 29.88 in WSW 0.1 mph 1.2 mph 93 % 0.00 in
03:00 66.4 °F 64.3 °F 29.88 in WSW 0.9 mph 2.3 mph 93 % 0.00 in
03:05 66.5 °F 64.4 °F 29.88 in WSW 1.1 mph 2.3 mph 93 % 0.00 in
03:10 66.5 °F 64.4 °F 29.88 in WSW 0.4 mph 2.3 mph 93 % 0.00 in
03:20 66.7 °F 64.6 °F 29.88 in SSW 0.9 mph 2.0 mph 93 % 0.02 in
03:26 66.8 °F 64.7 °F 29.88 in WSW 0.2 mph 2.3 mph 93 % 0.04 in
03:31 66.8 °F 64.7 °F 29.87 in Calm   2.0 mph 93 % 0.00 in
03:36 66.9 °F 65.1 °F 29.87 in Calm   3.0 mph 94 % 0.00 in
03:41 66.9 °F 65.1 °F 29.87 in WSW 0.2 mph 2.0 mph 94 % 0.05 in
03:46 66.9 °F 65.1 °F 29.87 in WSW 1.0 mph 3.0 mph 94 % 0.01 in
03:51 67.0 °F 65.2 °F 29.87 in Calm   2.0 mph 94 % 0.01 in
03:56 67.0 °F 65.2 °F 29.87 in WSW 0.2 mph 1.2 mph 94 % 0.09 in
04:01 67.0 °F 65.2 °F 29.87 in Calm     94 % 0.13 in
04:06 67.0 °F 65.2 °F 29.87 in WSW 0.1 mph 1.2 mph 94 % 0.16 in
04:11 67.0 °F 65.2 °F 29.86 in Calm   1.2 mph 94 % 0.18 in
04:16 67.1 °F 65.3 °F 29.86 in Calm   1.0 mph 94 % 0.19 in
04:21 67.1 °F 65.3 °F 29.86 in Calm     94 % 0.19 in
04:26 67.1 °F 65.6 °F 29.86 in SW 1.5 mph 4.0 mph 95 % 0.18 in
04:31 67.2 °F 65.7 °F 29.86 in Calm   1.2 mph 95 % 0.19 in
04:36 67.2 °F 65.7 °F 29.86 in SW 0.1 mph   95 % 0.19 in
04:41 67.2 °F 65.7 °F 29.86 in Calm     95 % 0.18 in
04:47 67.2 °F 65.7 °F 29.86 in Calm   2.3 mph 95 % 0.17 in
04:52 67.2 °F 65.7 °F 29.86 in WSW 4.9 mph 10.4 mph 95 % 0.15 in
04:57 67.2 °F 65.7 °F 29.86 in South 2.3 mph 5.8 mph 95 % 0.14 in
05:02 67.2 °F 65.7 °F 29.86 in WNW 3.7 mph 5.0 mph 95 % 0.11 in
05:07 67.2 °F 65.7 °F 29.86 in SW 1.7 mph 3.5 mph 95 % 0.08 in
05:12 67.2 °F 65.7 °F 29.86 in SW 1.0 mph 2.3 mph 95 % 0.05 in
05:17 67.2 °F 65.7 °F 29.86 in SW 1.0 mph 3.0 mph 95 % 0.03 in
05:22 67.2 °F 65.7 °F 29.86 in SW 4.4 mph 10.4 mph 95 % 0.03 in
05:27 67.1 °F 65.6 °F 29.86 in SW 3.6 mph 5.8 mph 95 % 0.01 in
05:32 67.1 °F 65.6 °F 29.86 in SW 4.2 mph 10.4 mph 95 % 0.02 in
05:38 67.0 °F 65.5 °F 29.86 in WSW 3.5 mph 3.5 mph 95 % 0.02 in
05:43 67.0 °F 65.5 °F 29.86 in WSW 3.2 mph 5.8 mph 95 % 0.02 in
05:48 66.9 °F 65.4 °F 29.86 in WSW 3.1 mph 4.6 mph 95 % 0.02 in
05:53 66.8 °F 65.3 °F 29.86 in West 1.4 mph 3.0 mph 95 % 0.02 in
05:58 66.8 °F 65.3 °F 29.86 in SW 3.7 mph 5.8 mph 95 % 0.01 in
06:03 66.7 °F 65.2 °F 29.86 in West 0.1 mph 1.2 mph 95 % 0.01 in
06:08 66.7 °F 65.2 °F 29.87 in WSW 1.7 mph 3.5 mph 95 % 0.01 in
06:13 66.7 °F 65.2 °F 29.86 in WSW 0.4 mph 1.2 mph 95 % 0.01 in
06:18 66.6 °F 65.1 °F 29.87 in SW 4.0 mph 5.8 mph 95 % 0.01 in
06:23 66.7 °F 65.2 °F 29.87 in WNW 1.5 mph 6.9 mph 95 % 0.01 in
06:29 66.6 °F 65.1 °F 29.87 in WSW 0.3 mph 5.8 mph 95 % 0.01 in
06:34 66.6 °F 65.1 °F 29.87 in West 2.5 mph 5.8 mph 95 % 0.00 in
06:39 66.6 °F 65.1 °F 29.87 in WSW 2.1 mph 5.8 mph 95 % 0.00 in
06:44 66.5 °F 65.0 °F 29.87 in WNW 2.7 mph 5.8 mph 95 % 0.00 in
06:49 66.5 °F 65.0 °F 29.87 in SW 4.8 mph 9.2 mph 95 % 0.00 in
06:54 66.3 °F 64.8 °F 29.87 in West 2.4 mph 5.8 mph 95 % 0.00 in
06:59 66.3 °F 64.8 °F 29.87 in SSW 4.6 mph 8.1 mph 95 % 0.00 in
07:04 66.2 °F 64.7 °F 29.88 in WSW 5.9 mph 9.2 mph 95 % 0.00 in
07:09 66.1 °F 64.6 °F 29.88 in West 1.1 mph 4.0 mph 95 % 0.00 in
07:14 66.0 °F 64.5 °F 29.88 in West 1.8 mph 3.5 mph 95 % 0.00 in
07:20 65.9 °F 64.4 °F 29.88 in West 3.3 mph 6.9 mph 95 % 0.00 in
07:25 65.8 °F 64.0 °F 29.88 in WNW 3.3 mph 5.8 mph 94 % 0.00 in
07:30 65.6 °F 63.8 °F 29.88 in WSW 3.8 mph 6.9 mph 94 % 0.00 in
07:35 65.5 °F 63.7 °F 29.88 in WSW 2.4 mph 5.8 mph 94 % 0.01 in
07:45 65.3 °F 63.5 °F 29.87 in WSW 2.1 mph 3.5 mph 94 % 0.01 in
07:50 65.3 °F 63.5 °F 29.87 in West 1.8 mph 6.9 mph 94 % 0.01 in
07:55 65.2 °F 63.4 °F 29.87 in SW 0.4 mph 2.3 mph 94 % 0.01 in
08:00 65.2 °F 63.4 °F 29.87 in WSW 1.5 mph 3.5 mph 94 % 0.01 in
08:05 65.1 °F 63.3 °F 29.87 in SW 2.7 mph 3.5 mph 94 % 0.01 in
08:11 65.1 °F 63.3 °F 29.87 in WSW 1.0 mph 4.0 mph 94 % 0.00 in
08:16 65.1 °F 63.3 °F 29.87 in West 1.6 mph 3.5 mph 94 % 0.01 in
08:21 65.1 °F 63.6 °F 29.88 in Calm   3.0 mph 95 % 0.00 in
08:26 65.1 °F 63.6 °F 29.88 in Calm   3.0 mph 95 % 0.00 in
08:31 65.1 °F 63.6 °F 29.88 in Calm     95 % 0.01 in
08:36 65.1 °F 63.6 °F 29.88 in Calm   2.0 mph 95 % 0.00 in
08:41 65.2 °F 63.7 °F 29.88 in WSW 1.0 mph 3.0 mph 95 % 0.00 in
08:46 65.2 °F 63.7 °F 29.89 in West 1.9 mph 2.3 mph 95 % 0.00 in
08:51 65.2 °F 63.7 °F 29.89 in Calm   3.0 mph 95 % 0.00 in
08:56 65.3 °F 63.8 °F 29.89 in WSW 1.0 mph 4.0 mph 95 % 0.00 in
09:01 65.2 °F 63.7 °F 29.89 in WSW 1.9 mph 3.5 mph 95 % 0.00 in
09:06 65.3 °F 63.8 °F 29.89 in WSW 2.0 mph 6.0 mph 95 % 0.00 in
09:11 65.3 °F 63.8 °F 29.89 in WSW 2.0 mph 5.0 mph 95 % 0.00 in
09:16 65.3 °F 63.8 °F 29.90 in West 3.7 mph 4.0 mph 95 % 0.00 in
09:21 65.4 °F 63.9 °F 29.90 in Calm   3.0 mph 95 % 0.00 in
09:26 65.4 °F 63.9 °F 29.90 in West 1.0 mph 5.0 mph 95 % 0.00 in
09:31 65.6 °F 64.1 °F 29.90 in WNW 1.8 mph 3.5 mph 95 % 0.00 in
09:36 65.6 °F 64.2 °F 29.90 in West 1.0 mph 6.0 mph 95 % 0.00 in
09:41 65.7 °F 64.2 °F 29.90 in West 2.0 mph 5.0 mph 95 % 0.00 in
09:46 65.8 °F 64.0 °F 29.90 in Calm   2.3 mph 94 % 0.00 in
09:51 66.0 °F 64.2 °F 29.90 in WSW 2.0 mph 4.0 mph 94 % 0.00 in
09:56 66.1 °F 64.3 °F 29.90 in West 2.0 mph 7.0 mph 94 % 0.00 in
10:01 66.3 °F 64.5 °F 29.90 in Calm   1.2 mph 94 % 0.00 in
10:06 66.4 °F 64.6 °F 29.90 in Calm   5.0 mph 94 % 0.00 in
10:11 66.5 °F 64.4 °F 29.90 in WSW 2.0 mph 6.0 mph 93 % 0.00 in
10:16 66.7 °F 64.6 °F 29.90 in Calm   3.5 mph 93 % 0.00 in
10:21 66.8 °F 64.4 °F 29.90 in WSW 2.0 mph 4.0 mph 92 % 0.00 in
10:26 67.0 °F 64.3 °F 29.90 in WSW 1.0 mph 5.0 mph 91 % 0.00 in
10:31 67.1 °F 64.1 °F 29.90 in West 2.0 mph 5.0 mph 90 % 0.00 in
10:36 67.2 °F 64.2 °F 29.90 in Calm   6.0 mph 90 % 0.00 in
10:41 67.4 °F 64.4 °F 29.90 in WSW 1.0 mph 4.0 mph 90 % 0.00 in
10:46 67.6 °F 64.6 °F 29.90 in WSW 0.4 mph 2.0 mph 90 % 0.00 in
10:51 67.8 °F 64.7 °F 29.90 in WSW 1.0 mph 4.0 mph 90 % 0.00 in
10:56 67.9 °F 64.6 °F 29.90 in West 1.0 mph 5.0 mph 89 % 0.00 in
11:01 68.3 °F 65.3 °F 29.91 in WNW 0.6 mph 3.5 mph 90 % 0.00 in
11:06 68.5 °F 64.8 °F 29.90 in WNW 1.0 mph 6.0 mph 88 % 0.00 in
11:11 68.8 °F 64.8 °F 29.90 in West 1.0 mph 6.0 mph 87 % 0.00 in
11:16 69.1 °F 64.4 °F 29.90 in West 2.0 mph 8.0 mph 85 % 0.00 in
11:21 69.3 °F 64.6 °F 29.90 in Calm   6.0 mph 85 % 0.00 in
11:26 69.4 °F 64.7 °F 29.90 in West 2.0 mph 5.0 mph 85 % 0.00 in
11:31 69.6 °F 65.2 °F 29.90 in WNW 1.0 mph 6.0 mph 86 % 0.00 in
11:36 69.7 °F 65.0 °F 29.90 in WNW 1.0 mph 4.0 mph 85 % 0.00 in
11:41 69.7 °F 64.3 °F 29.90 in WNW 1.0 mph 6.0 mph 83 % 0.00 in
11:46 69.7 °F 64.6 °F 29.90 in NNW 1.0 mph 5.0 mph 84 % 0.00 in
11:51 69.7 °F 64.6 °F 29.90 in Calm   3.0 mph 84 % 0.00 in
12:01 69.6 °F 64.5 °F 29.89 in NNE 2.3 mph 4.6 mph 84 % 0.00 in
12:06 69.5 °F 64.1 °F 29.89 in NNW 2.0 mph 6.0 mph 83 % 0.00 in
12:11 69.5 °F 64.1 °F 29.89 in NNW 1.0 mph 4.0 mph 83 % 0.00 in
12:16 69.6 °F 64.6 °F 29.89 in NW 1.0 mph 3.0 mph 84 % 0.00 in
12:21 69.7 °F 64.6 °F 29.89 in NNW 1.0 mph 3.0 mph 84 % 0.00 in
12:26 69.9 °F 64.5 °F 29.89 in Calm   4.0 mph 83 % 0.00 in
12:31 70.2 °F 64.8 °F 29.89 in NNW 2.0 mph 6.0 mph 83 % 0.00 in
12:36 70.7 °F 65.3 °F 29.88 in North 3.0 mph 6.0 mph 83 % 0.00 in
12:41 71.1 °F 65.3 °F 29.88 in North 2.0 mph 4.0 mph 82 % 0.00 in
12:46 71.4 °F 64.9 °F 29.88 in Calm   4.0 mph 80 % 0.00 in
12:51 71.6 °F 65.1 °F 29.88 in NNE 1.0 mph 3.0 mph 80 % 0.00 in
12:56 71.7 °F 64.5 °F 29.88 in North 2.0 mph 4.0 mph 78 % 0.00 in
13:06 71.9 °F 64.6 °F 29.88 in NNW 1.0 mph 4.0 mph 78 % 0.00 in
13:11 72.1 °F 65.2 °F 29.88 in Calm   3.0 mph 79 % 0.00 in
13:16 72.1 °F 64.9 °F 29.88 in Calm   2.0 mph 78 % 0.00 in
13:21 72.3 °F 65.4 °F 29.88 in NW 2.0 mph 5.0 mph 79 % 0.00 in
13:26 72.4 °F 65.1 °F 29.88 in WNW 1.0 mph 4.0 mph 78 % 0.00 in
13:31 72.5 °F 65.2 °F 29.88 in Calm   4.0 mph 78 % 0.00 in
13:36 72.6 °F 65.4 °F 29.88 in NW 1.0 mph 4.0 mph 78 % 0.00 in
13:41 72.8 °F 65.5 °F 29.87 in Calm   4.0 mph 78 % 0.00 in
13:46 73.0 °F 65.7 °F 29.87 in NNW 1.0 mph 3.0 mph 78 % 0.00 in
13:51 73.2 °F 65.9 °F 29.87 in North 2.0 mph 4.0 mph 78 % 0.00 in
13:56 73.3 °F 65.3 °F 29.87 in NNW 1.0 mph 4.0 mph 76 % 0.00 in
14:01 73.5 °F 65.5 °F 29.88 in NW 1.3 mph 5.8 mph 76 % 0.00 in
14:06 73.6 °F 65.6 °F 29.87 in NNW 3.4 mph 4.6 mph 76 % 0.00 in
14:11 73.7 °F 65.3 °F 29.87 in North 2.2 mph 4.6 mph 75 % 0.00 in
14:16 73.8 °F 65.8 °F 29.87 in North 3.1 mph 4.0 mph 76 % 0.00 in
14:21 73.9 °F 65.5 °F 29.87 in NNE 3.3 mph 5.8 mph 75 % 0.00 in
14:26 73.8 °F 65.8 °F 29.87 in North 2.6 mph 3.5 mph 76 % 0.00 in
14:31 73.9 °F 65.5 °F 29.87 in North 3.1 mph 4.6 mph 75 % 0.00 in
14:36 73.9 °F 65.1 °F 29.87 in NW 2.9 mph 5.8 mph 74 % 0.00 in
14:41 73.9 °F 64.3 °F 29.86 in NNW 1.9 mph 3.5 mph 72 % 0.00 in
14:46 74.0 °F 64.4 °F 29.86 in NNE 4.0 mph 5.0 mph 72 % 0.00 in
14:52 74.1 °F 64.1 °F 29.86 in North 4.3 mph 6.0 mph 71 % 0.00 in
14:57 74.1 °F 63.7 °F 29.86 in NNW 2.2 mph 4.0 mph 70 % 0.00 in
15:02 74.1 °F 64.1 °F 29.86 in NNE 2.7 mph 5.8 mph 71 % 0.00 in
15:07 74.2 °F 64.6 °F 29.86 in North 0.5 mph 2.3 mph 72 % 0.00 in
15:12 74.3 °F 64.3 °F 29.86 in NE 1.6 mph 3.5 mph 71 % 0.00 in
15:17 74.2 °F 63.4 °F 29.86 in North 2.0 mph 4.6 mph 69 % 0.00 in
15:22 74.1 °F 62.9 °F 29.86 in NE 1.5 mph 3.5 mph 68 % 0.00 in
15:27 74.0 °F 62.8 °F 29.86 in NNE 1.9 mph 3.5 mph 68 % 0.00 in
15:32 73.8 °F 62.2 °F 29.86 in NE 0.2 mph 3.5 mph 67 % 0.00 in
15:37 73.7 °F 62.5 °F 29.86 in NNE 2.3 mph 3.5 mph 68 % 0.00 in
15:43 73.7 °F 62.5 °F 29.86 in NNE 2.0 mph 4.6 mph 68 % 0.00 in
15:48 73.7 °F 62.5 °F 29.85 in NNE 1.3 mph 3.5 mph 68 % 0.00 in
15:53 73.7 °F 62.9 °F 29.85 in NNE 1.9 mph 3.5 mph 69 % 0.00 in
15:58 73.6 °F 62.4 °F 29.85 in NE 1.5 mph 3.5 mph 68 % 0.00 in
16:03 73.4 °F 62.2 °F 29.85 in NE 1.1 mph 3.5 mph 68 % 0.00 in
16:08 73.0 °F 61.8 °F 29.85 in NE 0.2 mph 1.2 mph 68 % 0.00 in
16:13 72.8 °F 62.0 °F 29.85 in ENE 0.1 mph 1.2 mph 69 % 0.00 in
16:18 72.7 °F 61.9 °F 29.85 in Calm     69 % 0.00 in
16:23 72.6 °F 63.1 °F 29.85 in Calm     72 % 0.00 in
16:28 72.4 °F 62.1 °F 29.85 in ENE 0.7 mph 2.3 mph 70 % 0.00 in
16:33 72.2 °F 62.7 °F 29.85 in ENE 0.2 mph 2.3 mph 72 % 0.00 in
16:38 72.2 °F 63.4 °F 29.85 in ENE 0.1 mph   74 % 0.00 in
16:43 72.0 °F 63.3 °F 29.85 in ENE 0.1 mph   74 % 0.00 in
16:49 71.9 °F 63.5 °F 29.85 in Calm   1.2 mph 75 % 0.00 in
16:54 71.7 °F 63.0 °F 29.85 in ENE 0.1 mph 1.2 mph 74 % 0.00 in
16:59 71.5 °F 63.2 °F 29.85 in Calm     75 % 0.00 in
17:04 71.4 °F 63.1 °F 29.86 in Calm     75 % 0.00 in
17:09 71.3 °F 62.6 °F 29.86 in Calm     74 % 0.00 in
17:14 71.2 °F 62.1 °F 29.85 in Calm     73 % 0.00 in
17:19 71.3 °F 62.2 °F 29.86 in Calm     73 % 0.00 in
17:24 71.2 °F 62.9 °F 29.86 in Calm     75 % 0.00 in
17:29 71.2 °F 62.9 °F 29.86 in Calm     75 % 0.00 in
17:34 71.1 °F 62.8 °F 29.86 in Calm     75 % 0.00 in
17:40 71.1 °F 62.8 °F 29.86 in ENE 0.7 mph 2.3 mph 75 % 0.00 in
17:45 71.1 °F 62.8 °F 29.86 in Calm   1.2 mph 75 % 0.00 in
17:50 70.8 °F 62.9 °F 29.86 in Calm     76 % 0.00 in
17:55 70.6 °F 62.7 °F 29.86 in Calm     76 % 0.00 in
18:00 70.4 °F 62.8 °F 29.86 in Calm   1.2 mph 77 % 0.00 in
18:05 70.3 °F 63.1 °F 29.86 in Calm     78 % 0.00 in
18:10 70.0 °F 62.8 °F 29.86 in Calm     78 % 0.00 in
18:15 69.9 °F 63.1 °F 29.86 in Calm     79 % 0.00 in
18:20 69.7 °F 63.3 °F 29.86 in Calm   2.3 mph 80 % 0.00 in
18:25 69.5 °F 63.1 °F 29.87 in ENE 0.6 mph 1.2 mph 80 % 0.00 in
18:31 69.4 °F 63.0 °F 29.87 in Calm   3.0 mph 80 % 0.00 in
18:36 69.3 °F 62.9 °F 29.87 in Calm     80 % 0.00 in
18:40 69.1 °F 62.7 °F 29.88 in Calm     80 % 0.00 in
18:46 68.8 °F 62.4 °F 29.88 in Calm   1.0 mph 80 % 0.00 in
18:51 68.6 °F 61.5 °F 29.88 in East 1.0 mph 3.0 mph 78 % 0.00 in
18:55 68.3 °F 60.4 °F 29.88 in SSE 3.0 mph 5.8 mph 76 % 0.00 in
19:01 68.0 °F 60.2 °F 29.88 in SE 0.9 mph 3.5 mph 76 % 0.00 in
19:06 67.9 °F 60.4 °F 29.88 in SE 0.1 mph 4.6 mph 77 % 0.00 in
19:11 67.7 °F 60.6 °F 29.88 in SE 0.8 mph 2.3 mph 78 % 0.00 in
19:16 67.5 °F 60.8 °F 29.89 in SE 0.8 mph 1.2 mph 79 % 0.00 in
19:21 67.3 °F 60.9 °F 29.89 in SE 1.0 mph 2.3 mph 80 % 0.00 in
19:26 67.1 °F 61.1 °F 29.89 in Calm   1.2 mph 81 % 0.00 in
19:36 66.9 °F 60.9 °F 29.90 in Calm   1.2 mph 81 % 0.00 in
19:41 66.7 °F 61.0 °F 29.90 in Calm     82 % 0.00 in
19:47 66.7 °F 61.0 °F 29.90 in Calm     82 % 0.00 in
19:52 66.5 °F 60.8 °F 29.90 in Calm   1.2 mph 82 % 0.00 in
19:57 66.3 °F 60.6 °F 29.90 in Calm     82 % 0.00 in
20:02 66.1 °F 60.8 °F 29.90 in Calm     83 % 0.00 in
20:07 65.9 °F 60.6 °F 29.90 in Calm     83 % 0.00 in
20:12 65.7 °F 60.4 °F 29.90 in Calm     83 % 0.00 in
20:17 65.5 °F 60.5 °F 29.91 in Calm     84 % 0.00 in
20:22 65.3 °F 60.3 °F 29.91 in Calm     84 % 0.00 in
20:27 65.0 °F 60.0 °F 29.91 in SE 0.4 mph 1.2 mph 84 % 0.00 in
20:32 64.8 °F 60.2 °F 29.91 in Calm     85 % 0.00 in
20:38 64.6 °F 60.3 °F 29.91 in Calm     86 % 0.00 in
20:43 64.4 °F 60.1 °F 29.91 in Calm     86 % 0.00 in
20:48 64.3 °F 60.3 °F 29.91 in Calm     87 % 0.00 in
20:53 64.2 °F 60.6 °F 29.91 in WSW 1.4 mph 3.5 mph 88 % 0.00 in
20:58 64.1 °F 60.8 °F 29.91 in WSW 1.5 mph 3.0 mph 89 % 0.00 in
21:03 64.1 °F 61.1 °F 29.91 in WSW 0.1 mph 1.2 mph 90 % 0.00 in
21:13 64.0 °F 61.0 °F 29.92 in SW 2.0 mph 4.0 mph 90 % 0.00 in
21:18 64.0 °F 61.3 °F 29.92 in SSW 2.5 mph 3.5 mph 91 % 0.00 in
21:23 64.0 °F 61.3 °F 29.92 in SW 1.6 mph 4.6 mph 91 % 0.00 in
21:29 64.0 °F 61.3 °F 29.92 in Calm     91 % 0.00 in
21:34 63.9 °F 61.2 °F 29.92 in Calm   1.2 mph 91 % 0.00 in
21:39 63.9 °F 61.2 °F 29.92 in WSW 0.1 mph 1.2 mph 91 % 0.00 in
21:44 63.8 °F 61.1 °F 29.93 in WSW 0.4 mph 2.3 mph 91 % 0.00 in
21:49 63.8 °F 61.1 °F 29.93 in Calm   1.0 mph 91 % 0.00 in
21:54 63.7 °F 61.0 °F 29.93 in WSW 1.1 mph 2.3 mph 91 % 0.00 in
22:04 63.6 °F 60.9 °F 29.93 in WSW 0.1 mph 1.2 mph 91 % 0.00 in
22:09 63.5 °F 60.8 °F 29.93 in Calm   1.2 mph 91 % 0.00 in
22:14 63.4 °F 60.7 °F 29.93 in Calm     91 % 0.00 in
22:19 63.3 °F 60.6 °F 29.93 in Calm     91 % 0.00 in
22:24 63.2 °F 60.2 °F 29.93 in Calm     90 % 0.00 in
22:30 63.1 °F 60.1 °F 29.93 in Calm     90 % 0.00 in
22:35 62.9 °F 59.9 °F 29.93 in Calm     90 % 0.00 in
22:40 62.7 °F 59.7 °F 29.94 in Calm     90 % 0.00 in
22:45 62.5 °F 59.5 °F 29.94 in Calm     90 % 0.00 in
22:50 62.3 °F 59.3 °F 29.94 in Calm     90 % 0.00 in
22:55 62.1 °F 59.1 °F 29.94 in Calm     90 % 0.00 in
23:00 61.9 °F 58.9 °F 29.94 in Calm     90 % 0.00 in
23:05 61.8 °F 58.8 °F 29.94 in Calm     90 % 0.00 in
23:10 61.6 °F 58.6 °F 29.94 in Calm     90 % 0.00 in
23:15 61.5 °F 58.5 °F 29.94 in Calm     90 % 0.00 in
23:20 61.3 °F 58.7 °F 29.94 in Calm     91 % 0.00 in
23:25 61.2 °F 58.2 °F 29.95 in Calm     90 % 0.00 in
23:30 61.0 °F 58.4 °F 29.95 in Calm     91 % 0.00 in
23:35 60.9 °F 58.2 °F 29.95 in Calm     91 % 0.00 in
23:40 60.7 °F 58.1 °F 29.95 in Calm     91 % 0.00 in
23:45 60.6 °F 58.0 °F 29.95 in Calm     91 % 0.00 in
23:50 60.5 °F 57.8 °F 29.96 in Calm     91 % 0.00 in
23:55 60.3 °F 57.7 °F 29.95 in Calm     91 % 0.00 in
Crab Meadow Weather
Compliments of Weather Underground - 2.75 mb

Script developed by  Jim McMurry - jmcmurry@mwt.net Adapted for the template by  Wim van der Kuil - Leuven-Template.eu

Weather Terms: Dense Fog Advisory - Widespread dense fog reducing visibility to less than 1/4 mile.